TURKSAT 5A (47306 NORAD) Tracking and Keplerian Element Data
This shows tracking and keplerian element data for the satellite.
Feedback or suggestion? Click here.
Element | Value |
Catalog | 47306 |
Name | TURKSAT 5A |
Epoch Orbit | 58 |
Epoch Day | 58.27645466 |
Epoch Year | 2021 |
RAAN | 322.0044 |
Inclination | 5.8256 |
Eccentricity | 0.588951 |
Argument of Perigee | 195.0968 |
Mean Anonmoly | 321.094 |
Mean Motion | 1.01761482 |
Decay Rate | -2.5E-06 |
L1 | 1 47306U 21001A 21058.27645466 -.00000250 00000-0 00000+0 0 9997 |
L2 | 2 47306 5.8256 322.0044 5889510 195.0968 321.0940 1.01761482 589 |
Live tracking and technical data element details for TURKSAT 5A (NORAD 47306). TURKSAT 5A can be tracked NOW for your location showing map with azimuth and elevation plus other details from your city location.
Track the satellite on the map from your city or location and see movement details for azimuth, elevation, latitude, longitude, range, height, and movement on the map or in text.
IsCatalogInMostPopularTable: catalog: 47306, numindb: 17
Update: records affected: 1
GetName: 47306 TURKSAT 5A
Hit Count: updated at: Tue, 02 Mar 2021 14:03:40 GMT